Location: Unspecified
(0.0000°N, 0.0000°E)
Time: 17:33:18
(UTC+00:00)

Tiangong - Visible Passes

Search period start: 13 August 2022 00:00
Search period end: 23 August 2022 00:00
Orbit: 381 x 386 km, 41.5° (Epoch: 13 August)

Date Brightness Start Highest point End Pass type
(mag) Time Alt. Az. Time Alt. Az. Time Alt. Az.
13 Aug 0.6 05:11:42 10° N 05:14:08 20° NE 05:16:34 10° E visible
15 Aug -1.6 04:49:34 25° NNW 04:51:12 57° NE 04:54:19 10° SE visible
16 Aug -0.4 05:26:50 13° WSW 05:28:18 16° SW 05:30:26 10° S visible
17 Aug 0.7 04:31:40 11° SSE 04:31:40 11° SSE 04:31:53 10° SSE visible
